{"data":{"norad_id":67387,"epoch":"2026-09-19T22:54:00.217152Z","epoch_age_seconds":65368,"freshness":"FRESH","line1":"1 67387U 26004AA  26262.95416918  .00003113  00000+0  32285-3 0  9994","line2":"2 67387  97.8103 260.8576 0004229 120.7090 239.4545 14.90701438 37426","mean_motion":14.90701438,"eccentricity":0.0004229,"inclination_deg":97.8103,"raan_deg":260.8576,"arg_perigee_deg":120.709,"mean_anomaly_deg":239.4545,"bstar":0.00032285,"rev_number":3742,"period_min":96.598820078417,"perigee_km":592.79788008738,"apogee_km":598.69639128935,"semimajor_km":6973.8841356884,"source":"CELESTRAK","updated_at":"2026-09-20T09:00:34.916877Z"}}